Wind_Speed
39 40 41 42 43 43 43 43 43 42 43 43 43 43 43 42 41 42 41 41 41 41 40 41 40 39 38 37 35 34 32 31 30 29 27 26 26 24
39 40 41 42 43 44 45 45 45 44 44 44 45 45 45 43 43 42 43 43 43 43 42 41 41 40 39 38 36 35 33 31 30 29 27 26 24 23
40 41 42 43 44 44 45 45 45 46 45 46 45 45 45 45 44 44 45 44 44 44 44 43 42 41 40 39 37 35 34 32 31 29 28 26 24 23
41 41 42 43 45 45 45 45 46 46 46 46 47 46 46 47 46 46 46 45 44 44 44 44 43 43 41 40 38 36 35 33 31 30 28 26 25 23
41 42 43 44 45 46 47 47 46 46 46 47 47 47 47 48 47 47 47 47 44 44 45 45 44 44 42 41 40 38 36 34 32 31 29 27 26 24
40 41 43 44 45 46 48 48 48 47 47 46 47 47 48 48 48 47 48 48 46 45 45 46 46 45 44 42 41 39 37 35 34 32 30 29 26 24
38 39 41 43 44 46 47 48 49 48 47 47 47 47 48 49 48 48 48 49 48 47 46 48 48 47 45 44 42 41 39 37 35 33 32 30 28 26
36 37 39 40 42 45 47 48 50 49 48 48 48 48 48 49 49 49 49 49 49 49 48 48 49 48 47 45 44 42 41 39 37 35 34 32 30 27
35 36 38 39 41 43 46 48 50 50 50 49 48 48 49 49 48 48 49 48 48 49 50 50 50 49 48 47 46 44 43 41 39 37 35 34 32 29
32 33 35 37 39 41 43 46 48 49 50 51 50 49 50 50 49 49 49 48 48 49 49 51 51 51 49 48 47 46 44 42 41 39 37 35 34 31
30 31 33 35 37 38 40 42 44 47 50 50 51 50 50 50 50 50 50 49 49 49 49 50 51 52 51 50 49 48 46 45 43 40 38 37 35 34
28 29 31 33 34 36 38 40 42 45 47 49 50 50 51 51 51 51 51 50 51 50 49 50 52 53 52 52 50 48 47 46 45 43 41 39 37 35
26 26 27 29 31 33 36 38 40 42 45 47 48 49 51 50 51 51 50 49 51 50 50 50 51 52 52 52 51 50 49 47 45 44 42 40 38 36
24 23 23 24 26 29 32 35 37 40 43 45 46 48 50 50 51 51 51 50 50 49 49 49 49 51 52 51 51 50 49 48 46 45 44 42 40 38
21 20 20 20 22 25 28 32 34 37 41 42 44 46 48 50 51 51 50 51 51 50 50 50 49 50 51 51 51 50 49 48 48 46 45 44 42 40
18 17 16 16 17 20 24 27 30 34 37 40 42 43 46 47 49 51 50 50 51 51 49 49 49 49 50 51 51 50 50 48 48 47 46 44 42 41
15 14 13 13 14 16 20 24 27 30 33 37 39 41 43 45 46 48 50 50 51 52 51 50 49 50 50 50 51 50 49 48 48 47 46 45 43 42
13 11 10 11 12 14 16 20 24 26 29 33 36 38 39 41 43 45 47 49 50 51 51 50 49 50 51 51 49 49 49 48 48 48 47 45 44 43
12 10 9 8 9 11 13 17 20 24 27 30 33 35 36 38 40 42 44 45 47 48 50 50 48 49 50 51 49 49 48 47 47 48 47 46 45 43
13 10 7 5 7 9 12 14 18 21 25 28 31 33 34 36 37 38 41 42 44 46 48 48 47 46 46 47 47 46 46 46 46 47 47 46 44 43
13 9 6 4 5 7 10 13 15 19 23 26 28 31 33 34 35 36 38 40 41 43 45 45 45 44 44 44 45 46 45 45 45 46 46 45 44 43
12 9 5 2 2 5 9 12 13 17 20 23 26 29 31 32 33 35 36 37 39 41 42 43 43 43 43 43 43 43 43 44 44 44 45 44 43 42
12 9 5 2 2 4 7 10 13 14 17 20 23 26 27 29 31 33 34 35 37 39 41 41 41 41 41 42 42 42 42 42 42 41 42 42 42 42
Wind_Direction
260 259 257 255 253 251 249 247 246 244 243 242 240 238 236 234 233 232 229 228 227 226 226 226 226 226 225 226 227 228 230 231 231 232 233 233 235 236
261 259 257 255 253 251 248 246 245 244 242 241 239 238 236 234 233 232 229 228 226 225 225 226 225 224 224 225 227 228 229 228 228 229 230 231 233 236
262 260 257 255 252 250 248 246 245 243 242 240 238 237 235 234 232 231 229 228 225 225 226 225 223 223 223 225 225 226 226 225 226 227 227 228 230 233
262 260 257 254 252 250 248 246 245 243 241 240 238 236 234 233 232 231 229 227 225 224 224 222 222 222 222 222 223 223 223 223 223 224 225 226 228 233
263 260 257 254 252 249 248 246 244 243 241 239 237 236 234 232 231 230 227 226 225 224 222 221 221 221 221 221 220 221 221 221 221 223 224 224 227 231
265 261 258 255 252 249 247 245 244 243 241 239 237 235 233 230 229 228 225 224 224 223 222 220 220 220 220 219 219 219 219 220 221 222 222 223 226 230
267 263 259 255 252 249 246 244 242 241 240 238 235 232 232 230 227 227 225 222 222 222 221 220 219 219 219 218 218 218 219 220 221 222 223 224 227 230
270 265 260 256 253 249 245 242 240 239 237 236 234 231 229 228 227 226 224 222 221 221 221 220 219 218 218 217 217 217 219 220 221 222 223 225 228 230
272 267 262 258 254 249 245 241 238 237 235 234 233 231 229 226 225 224 223 222 221 220 220 219 218 217 217 217 217 218 219 220 222 223 224 226 228 231
277 271 265 259 254 249 244 240 237 235 234 232 231 229 228 225 224 223 222 221 221 220 220 219 218 218 217 218 218 219 220 220 222 224 225 226 228 231
280 274 266 260 254 248 243 239 237 234 232 230 229 228 226 225 223 222 221 222 222 221 220 219 218 217 217 218 218 219 221 222 223 224 226 227 229 231
284 276 268 261 254 248 242 237 234 233 231 229 227 226 225 224 223 223 222 222 221 221 220 219 219 219 219 219 219 220 222 223 224 226 227 228 231 232
288 280 271 262 254 247 239 235 233 230 229 227 226 225 224 223 223 223 223 222 222 222 220 219 219 220 221 221 221 221 223 223 224 226 227 228 231 232
294 284 274 264 254 246 239 234 231 229 227 226 225 224 222 222 221 222 223 222 221 221 219 218 218 219 220 220 221 222 223 224 225 226 227 228 230 231
297 287 278 268 255 246 239 233 230 227 225 224 224 222 222 221 220 220 221 223 221 219 219 218 219 218 220 221 221 221 222 223 225 226 227 229 230 231
304 293 282 271 255 245 237 231 227 225 223 222 222 221 220 219 218 219 220 219 219 218 218 216 218 219 220 221 222 223 222 224 226 226 228 229 231 232
311 300 288 273 257 246 235 230 226 223 220 219 219 219 219 219 219 219 218 218 218 219 219 218 218 218 220 222 223 224 224 225 226 226 227 229 231 232
320 310 296 275 257 244 232 225 221 219 216 214 214 215 216 217 219 219 219 220 220 220 220 220 221 220 220 221 223 224 224 226 226 226 226 228 230 230
332 320 305 279 253 238 229 220 215 214 212 209 210 212 214 215 217 218 220 221 221 221 222 223 222 219 220 220 221 223 224 226 227 228 227 227 229 229
341 332 317 284 246 229 221 216 212 209 208 207 208 209 210 213 215 216 216 217 219 220 221 223 224 222 223 222 222 222 222 224 226 228 227 228 229 229
347 344 328 292 249 223 211 208 207 205 204 205 205 206 209 211 212 212 213 215 216 218 220 222 223 224 224 223 224 226 225 224 225 226 226 228 229 229
351 352 346 319 223 208 205 203 203 202 201 204 206 206 208 211 211 212 214 215 216 217 218 219 220 222 223 222 223 225 226 227 228 228 226 227 229 230
354 354 354 343 214 208 202 202 203 200 200 203 205 207 207 209 210 213 214 215 214 216 216 217 218 219 219 220 222 223 225 226 226 227 227 228 229 230
Height
5748 5749 5750 5752 5754 5757 5760 5763 5767 5770 5774 5777 5780 5784 5789 5793 5797 5802 5807 5812 5817 5823 5828 5834 5839 5844 5849 5854 5858 5863 5867 5870 5874 5877 5880 5883 5886 5889
5736 5737 5738 5739 5741 5744 5748 5751 5754 5758 5762 5766 5769 5774 5778 5783 5788 5793 5798 5803 5809 5814 5820 5825 5831 5836 5842 5847 5852 5856 5860 5864 5868 5872 5875 5878 5881 5884
5723 5724 5725 5727 5729 5731 5735 5738 5742 5746 5750 5754 5758 5763 5768 5773 5778 5783 5789 5794 5800 5806 5812 5817 5823 5829 5834 5840 5845 5850 5854 5858 5863 5867 5870 5873 5877 5879
5710 5711 5712 5713 5716 5718 5722 5726 5729 5733 5738 5742 5747 5752 5756 5762 5767 5773 5779 5784 5790 5796 5803 5809 5815 5821 5827 5832 5838 5843 5848 5852 5857 5861 5865 5868 5872 5874
5696 5696 5698 5700 5702 5705 5708 5712 5716 5720 5725 5730 5735 5740 5745 5751 5757 5763 5768 5775 5781 5787 5793 5800 5806 5813 5819 5825 5831 5836 5841 5846 5851 5855 5859 5863 5866 5869
5682 5682 5683 5685 5687 5690 5694 5698 5702 5707 5712 5717 5722 5728 5733 5739 5746 5752 5758 5765 5771 5778 5784 5791 5798 5804 5811 5817 5823 5829 5835 5840 5845 5849 5854 5858 5861 5864
5667 5667 5668 5670 5672 5675 5679 5683 5688 5693 5699 5704 5710 5716 5722 5728 5735 5741 5748 5754 5761 5767 5774 5781 5788 5795 5802 5809 5815 5822 5828 5833 5838 5843 5847 5852 5855 5859
5654 5653 5654 5655 5657 5660 5663 5668 5674 5679 5685 5691 5697 5704 5710 5717 5724 5730 5737 5744 5751 5758 5765 5772 5779 5786 5793 5801 5807 5814 5820 5826 5831 5836 5841 5846 5849 5853
5640 5639 5639 5641 5642 5645 5648 5653 5659 5665 5672 5678 5685 5692 5699 5706 5713 5720 5726 5733 5741 5748 5755 5762 5769 5777 5785 5792 5799 5805 5812 5818 5824 5829 5834 5839 5843 5847
5628 5627 5626 5627 5628 5631 5634 5639 5645 5651 5658 5665 5673 5680 5686 5693 5701 5708 5715 5722 5730 5737 5744 5752 5759 5767 5775 5783 5790 5797 5804 5810 5816 5822 5827 5832 5836 5840
5617 5615 5614 5614 5615 5618 5622 5626 5632 5637 5644 5651 5659 5667 5674 5682 5689 5697 5704 5711 5719 5727 5734 5742 5750 5757 5765 5773 5781 5788 5795 5802 5808 5814 5820 5824 5829 5833
5606 5603 5602 5602 5603 5605 5609 5614 5619 5625 5631 5639 5647 5654 5662 5670 5678 5686 5694 5701 5709 5717 5724 5732 5740 5748 5756 5764 5772 5779 5786 5793 5799 5806 5811 5817 5821 5826
5596 5593 5591 5590 5591 5594 5597 5602 5607 5613 5619 5627 5634 5642 5651 5659 5667 5675 5683 5691 5699 5707 5715 5723 5731 5738 5747 5755 5763 5770 5777 5784 5790 5797 5803 5808 5814 5818
5587 5584 5582 5581 5582 5584 5587 5591 5596 5602 5609 5616 5623 5632 5640 5648 5656 5665 5673 5681 5689 5697 5705 5713 5721 5729 5738 5745 5753 5760 5768 5775 5782 5788 5794 5800 5805 5810
5580 5577 5575 5574 5574 5576 5579 5582 5587 5593 5599 5606 5614 5622 5630 5638 5646 5655 5663 5671 5679 5687 5695 5704 5712 5720 5728 5736 5744 5751 5758 5766 5772 5779 5785 5791 5797 5802
5573 5571 5569 5568 5567 5569 5571 5575 5579 5585 5591 5598 5605 5612 5620 5628 5636 5645 5653 5662 5670 5678 5686 5694 5702 5711 5719 5727 5734 5741 5749 5756 5763 5770 5776 5782 5788 5793
5568 5566 5564 5563 5563 5564 5566 5569 5573 5578 5584 5590 5597 5604 5612 5620 5628 5636 5644 5653 5662 5670 5677 5685 5693 5701 5709 5717 5724 5732 5740 5747 5754 5760 5767 5773 5779 5784
5565 5562 5560 5559 5559 5560 5561 5564 5568 5573 5578 5584 5591 5598 5605 5613 5620 5628 5635 5644 5652 5660 5668 5676 5684 5692 5700 5708 5715 5723 5730 5737 5744 5751 5757 5764 5770 5776
5563 5560 5558 5556 5556 5556 5558 5560 5564 5568 5573 5579 5585 5592 5599 5606 5613 5620 5628 5635 5643 5651 5659 5667 5675 5683 5691 5699 5707 5714 5722 5728 5735 5742 5748 5755 5761 5767
5561 5558 5556 5554 5554 5554 5556 5558 5561 5565 5569 5575 5581 5587 5594 5600 5607 5614 5621 5628 5636 5644 5651 5659 5667 5675 5683 5690 5698 5705 5712 5719 5726 5732 5739 5745 5751 5757
5560 5557 5555 5553 5553 5553 5554 5556 5559 5562 5567 5572 5577 5582 5589 5595 5601 5608 5615 5622 5629 5636 5644 5651 5659 5666 5674 5682 5689 5696 5703 5709 5716 5723 5730 5736 5742 5748
5559 5556 5554 5553 5552 5553 5554 5555 5558 5561 5564 5569 5574 5579 5585 5590 5596 5602 5609 5615 5622 5629 5636 5644 5651 5658 5666 5674 5681 5687 5694 5701 5707 5714 5721 5728 5733 5739
5559 5557 5554 5553 5553 5553 5553 5555 5557 5560 5563 5567 5571 5576 5581 5586 5592 5597 5603 5609 5616 5623 5630 5637 5644 5651 5658 5665 5672 5679 5686 5692 5699 5705 5712 5718 5724 5730